Regional Weather Roundup
Issued by NWS Jackson, KY

Home | Current Version | Previous Version | Graphics & Text | Print | Product List | Glossary Off
Versions: 1 2 3 4 5 6 7 8 9 10 11 12 13 14 15 16 17 18 19 20 21 22 23 24 25 26 27 28 29 30 31 32 33 34 35 36 37 38 39 40 41 42 43 44 45 46 47 48 49 50

000
ASUS43 KJKL 302105
RWRJKL

EAST KENTUCKY HOURLY WEATHER ROUNDUP
NATIONAL WEATHER SERVICE JACKSON KY
500 PM EDT TUE SEP 30 2014

NOTE: "FAIR" INDICATES FEW OR NO CLOUDS BELOW 12,000 FEET WITH
NO SIGNIFICANT WEATHER AND/OR OBSTRUCTIONS TO VISIBILITY.

* THESE REPORTS ARE NOT UNDER NWS QUALITY CONTROL AND MAY NOT
  REPORT WEATHER SUCH AS PRECIPITATION AND FOG.

KYZ079-080-083-085-087-088-110-112-115-119-120-302200
...EASTERN KENTUCKY...

CITY           SKY/WX    TMP DP  RH WIND       PRES   REMARKS
JACKSON        SUNNY     79  56  45 CALM      29.92S
LONDON         MOSUNNY   82  52  35 NE3       29.92F
SOMERSET*      MOSUNNY   81  46  30 N3        29.91F
MONTICELLO*    SUNNY     84  54  35 N3        29.92F
WILLIAMSBURG*    N/A    N/A N/A N/A N5          N/A
MIDDLESBORO*   SUNNY     80  54  39 N6        29.92S
HARLAN APT*    CLEAR     79  46  31 N8G16     29.93S
BLACK MTN*       N/A     68  52  56 VRB2        N/A
PIKEVILLE APT* MOSUNNY   77  55  47 W6        29.92S
BIG SANDY*     MOCLDY    78  56  46 CALM      29.90F
MOREHEAD APT*  PTCLDY    81  52  36 SW6       29.90F
$$

KYZ035-036-041-042-044-050-067-078-099-302200
...CENTRAL KENTUCKY...

CITY           SKY/WX    TMP DP  RH WIND       PRES   REMARKS
MT STERLING*   SUNNY     81  55  41 NW9       29.90F
FLEMING/MASON* PTSUNNY   77  57  49 NW6       29.89S
DANVILLE*      SUNNY     81  50  34 NW5       29.91S
RICHMOND*      PTSUNNY   82  48  30 N3        29.89F
LEXINGTON      SUNNY     83  55  38 NW7       29.89F
FRANKFORT      PTSUNNY   80  54  40 NW9       29.88F
$$

KYZ091>093-OHZ055-061-077-WVZ005-015-034-035-042-302200
...SOUTHERN OHIO/WEST VIRGINIA...

CITY           SKY/WX    TMP DP  RH WIND       PRES   REMARKS
COVINGTON      PTSUNNY   76  57  51 N13       29.90F
COLUMBUS       CLOUDY    59  55  87 NW10      29.93S
DAYTON         PTSUNNY   63  53  70 N7        29.95S
WILMINGTON     PTSUNNY   66  57  72 N12       29.92S
HUNTINGTON     SUNNY     81  57  43 W5        29.86F
CHARLESTON     PTSUNNY   80  55  42 W8        29.86F
PINEVILLE*     MOSUNNY   79  60  50 MISG      29.97S
BECKLEY        MOSUNNY   75  47  36 NW8       29.94F
BLUEFIELD      SUNNY     74  49  41 W8        29.97F
$$

VAZ002-007-008-TNZ017-027-036-066-071-302200
...SOUTHWEST VIRGINIA/EAST TENNESSEE...

CITY           SKY/WX    TMP DP  RH WIND       PRES   REMARKS
WISE*          SUNNY     75  46  35 W5        29.98S
JONESVILLE*    PTCLDY    77  54  44 CALM      29.93F
ABINGDON*      SUNNY     78  55  44 NW5       29.94S
BRISTOL        MOSUNNY   80  53  39 VRB3      29.91F
KNOXVILLE      MOSUNNY   82  56  40 N3        29.89F
OAK RIDGE      SUNNY     81  57  43 CALM      29.92F
CROSSVILLE     SUNNY     78  49  35 N8        29.95F
NASHVILLE      MOSUNNY   87  49  26 NE8       29.89F
$$

...KEY TO REMARKS...
VSB - VISIBILITY IN MILES
WCI - WIND CHILL INDEX
HX  - HEAT INDEX

$$


USA.gov is the U.S. government's official web portal to all federal, state and local government web resources and services.